Location: Nairn
(57.5833°N, 3.8667°W)
Time: 00:03:16
(UTC+00:00)

Tiros 1 - Pass Details

Date: 03 October 2022
Orbit: 629 x 662 km, 48.4° (Epoch: 09 December)

Event Time Altitude Azimuth Distance (km) Brightness Sun altitude
Exits shadow 03:20:00 18° 151° (SSE) 1,594 9.1 -24.2°
Drops below altitude 10° 03:21:38 10° 135° (SE) 2,053 9.8 -24.0°
Sets 03:24:16 0° 123° (ESE) 2,956 10.9 -23.7°
